Year,Month,Day,Hour,Minute,Value (Times are PST for temperature in C)
2010,10,24,00,00,10.30
2010,10,24,00,01,10.30
2010,10,24,00,02,10.30
2010,10,24,00,03,10.30
2010,10,24,00,04,10.30
2010,10,24,00,05,10.20
2010,10,24,00,06,10.20
2010,10,24,00,07,10.20
2010,10,24,00,08,10.20
2010,10,24,00,09,10.20
2010,10,24,00,10,10.20
2010,10,24,00,11,10.20
2010,10,24,00,12,10.20
2010,10,24,00,13,10.20
2010,10,24,00,14,10.20
2010,10,24,00,15,10.20
2010,10,24,00,16,10.20
2010,10,24,00,17,10.20
2010,10,24,00,18,10.20
2010,10,24,00,19,10.20
2010,10,24,00,20,10.20
2010,10,24,00,21,10.10
2010,10,24,00,22,10.10
2010,10,24,00,23,10.10
2010,10,24,00,24,10.10
2010,10,24,00,25,10.10
2010,10,24,00,26,10.10
2010,10,24,00,27,10.10
2010,10,24,00,28,10.10
2010,10,24,00,29,10.10
2010,10,24,00,30,10.10
2010,10,24,00,31,10.10
2010,10,24,00,32,10.10
2010,10,24,00,33,10.10
2010,10,24,00,34,10.10
2010,10,24,00,35,10.00
2010,10,24,00,36,10.00
2010,10,24,00,37,10.00
2010,10,24,00,38,10.00
2010,10,24,00,39,10.00
2010,10,24,00,40,10.00
2010,10,24,00,41,10.00
2010,10,24,00,42,10.00
2010,10,24,00,43,10.00
2010,10,24,00,44,10.00
2010,10,24,00,45,10.00
2010,10,24,00,46,9.90
2010,10,24,00,47,9.90
2010,10,24,00,48,9.90
2010,10,24,00,49,9.90
2010,10,24,00,50,9.90
2010,10,24,00,51,9.90
2010,10,24,00,52,9.90
2010,10,24,00,53,9.90
2010,10,24,00,54,9.90
2010,10,24,00,55,9.90
2010,10,24,00,56,9.90
2010,10,24,00,57,9.80
2010,10,24,00,58,9.80
2010,10,24,00,59,9.80
2010,10,24,01,00,9.80
2010,10,24,01,01,9.80
2010,10,24,01,02,9.70
2010,10,24,01,03,9.70
2010,10,24,01,04,9.70
2010,10,24,01,05,9.70
2010,10,24,01,06,9.70
2010,10,24,01,07,9.70
2010,10,24,01,08,9.70
2010,10,24,01,09,9.60
2010,10,24,01,10,9.60
2010,10,24,01,11,9.60
2010,10,24,01,12,9.60
2010,10,24,01,13,9.60
2010,10,24,01,14,9.60
2010,10,24,01,15,9.60
2010,10,24,01,16,9.50
2010,10,24,01,17,9.50
2010,10,24,01,18,9.50
2010,10,24,01,19,9.40
2010,10,24,01,20,9.40
2010,10,24,01,21,9.40
2010,10,24,01,22,9.40
2010,10,24,01,23,9.40
2010,10,24,01,24,9.40
2010,10,24,01,25,9.40
2010,10,24,01,26,9.30
2010,10,24,01,27,9.30
2010,10,24,01,28,9.30
2010,10,24,01,29,9.30
2010,10,24,01,30,9.30
2010,10,24,01,31,9.30
2010,10,24,01,32,9.30
2010,10,24,01,33,9.30
2010,10,24,01,34,9.30
2010,10,24,01,35,9.30
2010,10,24,01,36,9.30
2010,10,24,01,37,9.30
2010,10,24,01,38,9.30
2010,10,24,01,39,9.30
2010,10,24,01,40,9.30
2010,10,24,01,41,9.30
2010,10,24,01,42,9.30
2010,10,24,01,43,9.30
2010,10,24,01,44,9.30
2010,10,24,01,45,9.30
2010,10,24,01,46,9.30
2010,10,24,01,47,9.30
2010,10,24,01,48,9.30
2010,10,24,01,49,9.30
2010,10,24,01,50,9.30
2010,10,24,01,51,9.30
2010,10,24,01,52,9.30
2010,10,24,01,53,9.30
2010,10,24,01,54,9.30
2010,10,24,01,55,9.30
2010,10,24,01,56,9.30
2010,10,24,01,57,9.30
2010,10,24,01,58,9.30
2010,10,24,01,59,9.30
2010,10,24,02,00,9.30
2010,10,24,02,01,9.30
2010,10,24,02,02,9.30
2010,10,24,02,03,9.30
2010,10,24,02,04,9.30
2010,10,24,02,05,9.30
2010,10,24,02,06,9.30
2010,10,24,02,07,9.30
2010,10,24,02,08,9.30
2010,10,24,02,09,9.30
2010,10,24,02,10,9.30
2010,10,24,02,11,9.30
2010,10,24,02,12,9.30
2010,10,24,02,13,9.30
2010,10,24,02,14,9.30
2010,10,24,02,15,9.30
2010,10,24,02,16,9.30
2010,10,24,02,17,9.30
2010,10,24,02,18,9.30
2010,10,24,02,19,9.30
2010,10,24,02,20,9.30
2010,10,24,02,21,9.30
2010,10,24,02,22,9.30
2010,10,24,02,23,9.30
2010,10,24,02,24,9.30
2010,10,24,02,25,9.30
2010,10,24,02,26,9.30
2010,10,24,02,27,9.30
2010,10,24,02,28,9.30
2010,10,24,02,29,9.30
2010,10,24,02,30,9.30
2010,10,24,02,31,9.30
2010,10,24,02,32,9.30
2010,10,24,02,33,9.30
2010,10,24,02,34,9.30
2010,10,24,02,35,9.30
2010,10,24,02,36,9.30
2010,10,24,02,37,9.30
2010,10,24,02,38,9.30
2010,10,24,02,39,9.30
2010,10,24,02,40,9.30
2010,10,24,02,41,9.30
2010,10,24,02,42,9.30
2010,10,24,02,43,9.30
2010,10,24,02,44,9.20
2010,10,24,02,45,9.20
2010,10,24,02,46,9.20
2010,10,24,02,47,9.20
2010,10,24,02,48,9.20
2010,10,24,02,49,9.20
2010,10,24,02,50,9.20
2010,10,24,02,51,9.20
2010,10,24,02,52,9.20
2010,10,24,02,53,9.20
2010,10,24,02,54,9.20
2010,10,24,02,55,9.20
2010,10,24,02,56,9.20
2010,10,24,02,57,9.20
2010,10,24,02,58,9.20
2010,10,24,02,59,9.20
2010,10,24,03,00,9.30
2010,10,24,03,01,9.30
2010,10,24,03,02,9.30
2010,10,24,03,03,9.30
2010,10,24,03,06,9.30
2010,10,24,03,07,9.30
2010,10,24,03,08,9.30
2010,10,24,03,09,9.30
2010,10,24,03,10,9.30
2010,10,24,03,11,9.30
2010,10,24,03,12,9.30
2010,10,24,03,13,9.30
2010,10,24,03,14,9.30
2010,10,24,03,15,9.30
2010,10,24,03,16,9.30
2010,10,24,03,17,9.30
2010,10,24,03,18,9.30
2010,10,24,03,19,9.30
2010,10,24,03,20,9.30
2010,10,24,03,21,9.30
2010,10,24,03,22,9.30
2010,10,24,03,23,9.30
2010,10,24,03,24,9.30
2010,10,24,03,25,9.40
2010,10,24,03,26,9.40
2010,10,24,03,27,9.40
2010,10,24,03,28,9.40
2010,10,24,03,29,9.40
2010,10,24,03,30,9.40
2010,10,24,03,31,9.40
2010,10,24,03,32,9.40
2010,10,24,03,33,9.40
2010,10,24,03,34,9.40
2010,10,24,03,35,9.40
2010,10,24,03,36,9.40
2010,10,24,03,37,9.40
2010,10,24,03,38,9.40
2010,10,24,03,39,9.40
2010,10,24,03,40,9.40
2010,10,24,03,41,9.40
2010,10,24,03,42,9.40
2010,10,24,03,43,9.40
2010,10,24,03,44,9.40
2010,10,24,03,45,9.40
2010,10,24,03,46,9.40
2010,10,24,03,47,9.40
2010,10,24,03,48,9.40
2010,10,24,03,49,9.40
2010,10,24,03,50,9.40
2010,10,24,03,51,9.40
2010,10,24,03,52,9.40
2010,10,24,03,53,9.40
2010,10,24,03,54,9.40
2010,10,24,03,55,9.40
2010,10,24,03,56,9.40
2010,10,24,03,57,9.40
2010,10,24,03,58,9.40
2010,10,24,03,59,9.50
2010,10,24,04,00,9.50
2010,10,24,04,01,9.50
2010,10,24,04,02,9.50
2010,10,24,04,03,9.50
2010,10,24,04,04,9.60
2010,10,24,04,05,9.60
2010,10,24,04,06,9.60
2010,10,24,04,07,9.60
2010,10,24,04,08,9.60
2010,10,24,04,09,9.60
2010,10,24,04,10,9.60
2010,10,24,04,11,9.60
2010,10,24,04,12,9.60
2010,10,24,04,13,9.60
2010,10,24,04,14,9.60
2010,10,24,04,15,9.60
2010,10,24,04,16,9.60
2010,10,24,04,17,9.60
2010,10,24,04,18,9.60
2010,10,24,04,19,9.60
2010,10,24,04,20,9.60
2010,10,24,04,21,9.60
2010,10,24,04,22,9.60
2010,10,24,04,23,9.60
2010,10,24,04,24,9.60
2010,10,24,04,25,9.70
2010,10,24,04,26,9.70
2010,10,24,04,27,9.70
2010,10,24,04,28,9.70
2010,10,24,04,29,9.70
2010,10,24,04,30,9.70
2010,10,24,04,31,9.70
2010,10,24,04,32,9.70
2010,10,24,04,33,9.70
2010,10,24,04,34,9.70
2010,10,24,04,35,9.70
2010,10,24,04,36,9.70
2010,10,24,04,37,9.70
2010,10,24,04,38,9.70
2010,10,24,04,39,9.80
2010,10,24,04,40,9.80
2010,10,24,04,41,9.80
2010,10,24,04,42,9.80
2010,10,24,04,43,9.80
2010,10,24,04,44,9.80
2010,10,24,04,45,9.80
2010,10,24,04,46,9.80
2010,10,24,04,47,9.80
2010,10,24,04,48,9.80
2010,10,24,04,49,9.80
2010,10,24,04,50,9.80
2010,10,24,04,51,9.80
2010,10,24,04,52,9.80
2010,10,24,04,53,9.80
2010,10,24,04,54,9.80
2010,10,24,04,55,9.80
2010,10,24,04,56,9.80
2010,10,24,04,57,9.80
2010,10,24,04,58,9.80
2010,10,24,04,59,9.80
2010,10,24,05,00,9.80
2010,10,24,05,01,9.80
2010,10,24,05,02,9.80
2010,10,24,05,03,9.80
2010,10,24,05,04,9.80
2010,10,24,05,05,9.80
2010,10,24,05,06,9.80
2010,10,24,05,07,9.80
2010,10,24,05,08,9.80
2010,10,24,05,09,9.80
2010,10,24,05,10,9.80
2010,10,24,05,11,9.70
2010,10,24,05,12,9.70
2010,10,24,05,13,9.70
2010,10,24,05,14,9.70
2010,10,24,05,15,9.70
2010,10,24,05,16,9.70
2010,10,24,05,17,9.70
2010,10,24,05,18,9.70
2010,10,24,05,19,9.70
2010,10,24,05,20,9.70
2010,10,24,05,21,9.70
2010,10,24,05,22,9.70
2010,10,24,05,23,9.70
2010,10,24,05,24,9.70
2010,10,24,05,25,9.70
2010,10,24,05,26,9.70
2010,10,24,05,27,9.70
2010,10,24,05,28,9.70
2010,10,24,05,29,9.70
2010,10,24,05,30,9.70
2010,10,24,05,31,9.70
2010,10,24,05,32,9.70
2010,10,24,05,33,9.70
2010,10,24,05,34,9.70
2010,10,24,05,35,9.70
2010,10,24,05,36,9.70
2010,10,24,05,37,9.70
2010,10,24,05,38,9.70
2010,10,24,05,39,9.70
2010,10,24,05,40,9.70
2010,10,24,05,41,9.70
2010,10,24,05,42,9.70
2010,10,24,05,43,9.70
2010,10,24,05,44,9.70
2010,10,24,05,45,9.70
2010,10,24,05,46,9.70
2010,10,24,05,47,9.60
2010,10,24,05,48,9.60
2010,10,24,05,49,9.60
2010,10,24,05,50,9.60
2010,10,24,05,51,9.60
2010,10,24,05,52,9.60
2010,10,24,05,53,9.60
2010,10,24,05,54,9.60
2010,10,24,05,55,9.60
2010,10,24,05,56,9.60
2010,10,24,05,57,9.60
2010,10,24,05,58,9.60
2010,10,24,05,59,9.60
2010,10,24,06,00,9.60
2010,10,24,06,01,9.60
2010,10,24,06,02,9.60
2010,10,24,06,03,9.60
2010,10,24,06,04,9.60
2010,10,24,06,05,9.60
2010,10,24,06,06,9.60
2010,10,24,06,07,9.60
2010,10,24,06,08,9.60
2010,10,24,06,09,9.50
2010,10,24,06,10,9.50
2010,10,24,06,11,9.50
2010,10,24,06,12,9.50
2010,10,24,06,13,9.50
2010,10,24,06,14,9.50
2010,10,24,06,15,9.40
2010,10,24,06,16,9.40
2010,10,24,06,17,9.40
2010,10,24,06,18,9.40
2010,10,24,06,19,9.40
2010,10,24,06,20,9.40
2010,10,24,06,21,9.40
2010,10,24,06,22,9.40
2010,10,24,06,23,9.40
2010,10,24,06,24,9.40
2010,10,24,06,25,9.40
2010,10,24,06,26,9.40
2010,10,24,06,27,9.40
2010,10,24,06,28,9.40
2010,10,24,06,29,9.40
2010,10,24,06,30,9.40
2010,10,24,06,31,9.40
2010,10,24,06,32,9.40
2010,10,24,06,33,9.40
2010,10,24,06,34,9.40
2010,10,24,06,35,9.40
2010,10,24,06,36,9.40
2010,10,24,06,37,9.40
2010,10,24,06,38,9.40
2010,10,24,06,39,9.40
2010,10,24,06,40,9.40
2010,10,24,06,41,9.40
2010,10,24,06,42,9.40
2010,10,24,06,43,9.40
2010,10,24,06,44,9.40
2010,10,24,06,45,9.40
2010,10,24,06,46,9.40
2010,10,24,06,47,9.40
2010,10,24,06,48,9.40
2010,10,24,06,49,9.40
2010,10,24,06,50,9.40
2010,10,24,06,51,9.40
2010,10,24,06,52,9.40
2010,10,24,06,53,9.40
2010,10,24,06,54,9.40
2010,10,24,06,55,9.40
2010,10,24,06,56,9.40
2010,10,24,06,57,9.40
2010,10,24,06,58,9.40
2010,10,24,06,59,9.40
2010,10,24,07,00,9.30
2010,10,24,07,01,9.30
2010,10,24,07,02,9.30
2010,10,24,07,03,9.30
2010,10,24,07,04,9.30
2010,10,24,07,05,9.30
2010,10,24,07,06,9.30
2010,10,24,07,07,9.30
2010,10,24,07,08,9.30
2010,10,24,07,09,9.30
2010,10,24,07,10,9.30
2010,10,24,07,11,9.30
2010,10,24,07,12,9.30
2010,10,24,07,13,9.30
2010,10,24,07,14,9.30
2010,10,24,07,15,9.30
2010,10,24,07,16,9.30
2010,10,24,07,17,9.30
2010,10,24,07,18,9.30
2010,10,24,07,19,9.30
2010,10,24,07,20,9.30
2010,10,24,07,21,9.30
2010,10,24,07,22,9.30
2010,10,24,07,23,9.30
2010,10,24,07,24,9.30
2010,10,24,07,25,9.30
2010,10,24,07,26,9.30
2010,10,24,07,27,9.30
2010,10,24,07,28,9.30
2010,10,24,07,29,9.30
2010,10,24,07,30,9.30
2010,10,24,07,31,9.30
2010,10,24,07,32,9.30
2010,10,24,07,33,9.30
2010,10,24,07,34,9.30
2010,10,24,07,35,9.30
2010,10,24,07,36,9.30
2010,10,24,07,37,9.20
2010,10,24,07,38,9.20
2010,10,24,07,39,9.20
2010,10,24,07,40,9.20
2010,10,24,07,41,9.20
2010,10,24,07,42,9.20
2010,10,24,07,43,9.20
2010,10,24,07,44,9.20
2010,10,24,07,45,9.20
2010,10,24,07,46,9.10
2010,10,24,07,47,9.10
2010,10,24,07,48,9.10
2010,10,24,07,49,9.10
2010,10,24,07,50,9.10
2010,10,24,07,51,9.10
2010,10,24,07,52,9.10
2010,10,24,07,53,9.00
2010,10,24,07,54,9.00
2010,10,24,07,55,9.00
2010,10,24,07,56,9.00
2010,10,24,07,57,8.90
2010,10,24,07,58,8.90
2010,10,24,07,59,8.90
2010,10,24,08,00,8.90
2010,10,24,08,01,8.90
2010,10,24,08,02,8.90
2010,10,24,08,03,8.90
2010,10,24,08,04,8.90
2010,10,24,08,05,8.80
2010,10,24,08,06,8.80
2010,10,24,08,07,8.80
2010,10,24,08,08,8.80
2010,10,24,08,09,8.80
2010,10,24,08,10,8.80
2010,10,24,08,11,8.80
2010,10,24,08,12,8.80
2010,10,24,08,13,8.80
2010,10,24,08,14,8.80
2010,10,24,08,15,8.80
2010,10,24,08,16,8.70
2010,10,24,08,17,8.70
2010,10,24,08,18,8.70
2010,10,24,08,19,8.70
2010,10,24,08,20,8.70
2010,10,24,08,21,8.70
2010,10,24,08,22,8.70
2010,10,24,08,23,8.70
2010,10,24,08,24,8.70
2010,10,24,08,25,8.70
2010,10,24,08,26,8.70
2010,10,24,08,27,8.70
2010,10,24,08,28,8.70
2010,10,24,08,29,8.80
2010,10,24,08,30,8.80
2010,10,24,08,31,8.80
2010,10,24,08,32,8.80
2010,10,24,08,33,8.80
2010,10,24,08,34,8.80
2010,10,24,08,35,8.80
2010,10,24,08,36,8.80
2010,10,24,08,37,8.80
2010,10,24,08,38,8.80
2010,10,24,08,39,8.80
2010,10,24,08,40,8.80
2010,10,24,08,41,8.80
2010,10,24,08,42,8.80
2010,10,24,08,43,8.80
2010,10,24,08,44,8.70
2010,10,24,08,45,8.70
2010,10,24,08,46,8.70
2010,10,24,08,47,8.70
2010,10,24,08,48,8.70
2010,10,24,08,49,8.70
2010,10,24,08,50,8.70
2010,10,24,08,51,8.70
2010,10,24,08,52,8.70
2010,10,24,08,53,8.70
2010,10,24,08,54,8.70
2010,10,24,08,55,8.70
2010,10,24,08,56,8.70
2010,10,24,08,57,8.70
2010,10,24,08,58,8.70
2010,10,24,08,59,8.70
2010,10,24,09,00,8.80
2010,10,24,09,01,8.70
2010,10,24,09,02,8.70
2010,10,24,09,03,8.70
2010,10,24,09,04,8.70
2010,10,24,09,05,8.70
2010,10,24,09,06,8.70
2010,10,24,09,07,8.70
2010,10,24,09,08,8.70
2010,10,24,09,09,8.70
2010,10,24,09,10,8.70
2010,10,24,09,11,8.70
2010,10,24,09,12,8.70
2010,10,24,09,13,8.70
2010,10,24,09,14,8.70
2010,10,24,09,15,8.70
2010,10,24,09,16,8.70
2010,10,24,09,17,8.70
2010,10,24,09,18,8.70
2010,10,24,09,19,8.70
2010,10,24,09,20,8.70
2010,10,24,09,21,8.70
2010,10,24,09,22,8.80
2010,10,24,09,23,8.80
2010,10,24,09,24,8.80
2010,10,24,09,25,8.80
2010,10,24,09,26,8.80
2010,10,24,09,27,8.90
2010,10,24,09,28,8.90
2010,10,24,09,29,8.90
2010,10,24,09,30,8.90
2010,10,24,09,31,9.00
2010,10,24,09,32,9.00
2010,10,24,09,33,9.10
2010,10,24,09,34,9.10
2010,10,24,09,35,9.20
2010,10,24,09,36,9.30
2010,10,24,09,37,9.30
2010,10,24,09,38,9.40
2010,10,24,09,39,9.50
2010,10,24,09,40,9.50
2010,10,24,09,41,9.50
2010,10,24,09,42,9.40
2010,10,24,09,43,9.40
2010,10,24,09,44,9.30
2010,10,24,09,45,9.30
2010,10,24,09,46,9.20
2010,10,24,09,47,9.20
2010,10,24,09,48,9.10
2010,10,24,09,49,9.10
2010,10,24,09,50,9.00
2010,10,24,09,51,9.00
2010,10,24,09,52,8.90
2010,10,24,09,53,8.90
2010,10,24,09,54,8.80
2010,10,24,09,55,8.80
2010,10,24,09,56,8.70
2010,10,24,09,57,8.70
2010,10,24,09,58,8.60
2010,10,24,09,59,8.60
2010,10,24,10,00,8.60
2010,10,24,10,01,8.50
2010,10,24,10,02,8.50
2010,10,24,10,03,8.40
2010,10,24,10,04,8.40
2010,10,24,10,05,8.40
2010,10,24,10,06,8.30
2010,10,24,10,07,8.30
2010,10,24,10,08,8.30
2010,10,24,10,09,8.30
2010,10,24,10,10,8.30
2010,10,24,10,11,8.30
2010,10,24,10,12,8.30
2010,10,24,10,13,8.30
2010,10,24,10,14,8.30
2010,10,24,10,15,8.30
2010,10,24,10,16,8.40
2010,10,24,10,17,8.40
2010,10,24,10,18,8.50
2010,10,24,10,19,8.50
2010,10,24,10,20,8.60
2010,10,24,10,21,8.60
2010,10,24,10,22,8.70
2010,10,24,10,23,8.80
2010,10,24,10,24,8.90
2010,10,24,10,25,8.90
2010,10,24,10,26,8.90
2010,10,24,10,27,9.00
2010,10,24,10,28,9.00
2010,10,24,10,29,9.10
2010,10,24,10,30,9.10
2010,10,24,10,31,9.20
2010,10,24,10,32,9.20
2010,10,24,10,33,9.20
2010,10,24,10,34,9.20
2010,10,24,10,35,9.30
2010,10,24,10,36,9.30
2010,10,24,10,37,9.30
2010,10,24,10,38,9.30
2010,10,24,10,39,9.30
2010,10,24,10,40,9.30
2010,10,24,10,41,9.30
2010,10,24,10,42,9.30
2010,10,24,10,43,9.30
2010,10,24,10,44,9.30
2010,10,24,10,45,9.30
2010,10,24,10,46,9.30
2010,10,24,10,47,9.30
2010,10,24,10,48,9.30
2010,10,24,10,49,9.20
2010,10,24,10,50,9.20
2010,10,24,10,51,9.10
2010,10,24,10,52,9.10
2010,10,24,10,53,9.10
2010,10,24,10,54,9.10
2010,10,24,10,55,9.10
2010,10,24,10,56,9.10
2010,10,24,10,57,9.10
2010,10,24,10,58,9.20
2010,10,24,10,59,9.20
2010,10,24,11,00,9.20
2010,10,24,11,01,9.30
2010,10,24,11,02,9.40
2010,10,24,11,03,9.50
2010,10,24,11,04,9.60
2010,10,24,11,05,9.70
2010,10,24,11,06,9.70
2010,10,24,11,07,9.80
2010,10,24,11,08,9.70
2010,10,24,11,09,9.70
2010,10,24,11,10,9.60
2010,10,24,11,11,9.60
2010,10,24,11,12,9.60
2010,10,24,11,13,9.60
2010,10,24,11,14,9.60
2010,10,24,11,15,9.60
2010,10,24,11,16,9.60
2010,10,24,11,17,9.60
2010,10,24,11,18,9.60
2010,10,24,11,19,9.60
2010,10,24,11,20,9.60
2010,10,24,11,21,9.60
2010,10,24,11,22,9.70
2010,10,24,11,23,9.70
2010,10,24,11,24,9.70
2010,10,24,11,25,9.70
2010,10,24,11,26,9.70
2010,10,24,11,27,9.70
2010,10,24,11,28,9.70
2010,10,24,11,29,9.70
2010,10,24,11,30,9.70
2010,10,24,11,31,9.70
2010,10,24,11,32,9.70
2010,10,24,11,33,9.70
2010,10,24,11,34,9.70
2010,10,24,11,35,9.70
2010,10,24,11,36,9.70
2010,10,24,11,37,9.80
2010,10,24,11,38,9.80
2010,10,24,11,39,9.80
2010,10,24,11,40,9.80
2010,10,24,11,41,9.80
2010,10,24,11,42,9.80
2010,10,24,11,43,9.80
2010,10,24,11,44,9.80
2010,10,24,11,45,9.80
2010,10,24,11,46,9.80
2010,10,24,11,47,9.70
2010,10,24,11,48,9.70
2010,10,24,11,49,9.70
2010,10,24,11,50,9.60
2010,10,24,11,51,9.60
2010,10,24,11,52,9.60
2010,10,24,11,53,9.60
2010,10,24,11,54,9.50
2010,10,24,11,55,9.40
2010,10,24,11,56,9.30
2010,10,24,11,57,9.30
2010,10,24,11,58,9.30
2010,10,24,11,59,9.30
2010,10,24,12,00,9.20
2010,10,24,12,01,9.20
2010,10,24,12,02,9.20
2010,10,24,12,03,9.20
2010,10,24,12,04,9.20
2010,10,24,12,05,9.20
2010,10,24,12,06,9.20
2010,10,24,12,07,9.20
2010,10,24,12,08,9.20
2010,10,24,12,09,9.20
2010,10,24,12,10,9.20
2010,10,24,12,11,9.20
2010,10,24,12,12,9.20
2010,10,24,12,13,9.20
2010,10,24,12,14,9.20
2010,10,24,12,15,9.20
2010,10,24,12,16,9.30
2010,10,24,12,17,9.30
2010,10,24,12,18,9.30
2010,10,24,12,19,9.30
2010,10,24,12,20,9.30
2010,10,24,12,21,9.30
2010,10,24,12,22,9.30
2010,10,24,12,23,9.30
2010,10,24,12,24,9.40
2010,10,24,12,25,9.40
2010,10,24,12,26,9.40
2010,10,24,12,27,9.50
2010,10,24,12,28,9.50
2010,10,24,12,29,9.60
2010,10,24,12,30,9.60
2010,10,24,12,31,9.60
2010,10,24,12,32,9.70
2010,10,24,12,33,9.70
2010,10,24,12,34,9.80
2010,10,24,12,35,9.80
2010,10,24,12,36,9.90
2010,10,24,12,37,10.00
2010,10,24,12,38,10.10
2010,10,24,12,39,10.10
2010,10,24,12,40,10.20
2010,10,24,12,41,10.20
2010,10,24,12,42,10.30
2010,10,24,12,43,10.30
2010,10,24,12,44,10.30
2010,10,24,12,45,10.30
2010,10,24,12,46,10.40
2010,10,24,12,47,10.50
2010,10,24,12,48,10.50
2010,10,24,12,49,10.60
2010,10,24,12,50,10.60
2010,10,24,12,51,10.70
2010,10,24,12,52,10.70
2010,10,24,12,53,10.80
2010,10,24,12,54,10.90
2010,10,24,12,55,10.90
2010,10,24,12,56,11.00
2010,10,24,12,57,11.00
2010,10,24,12,58,11.00
2010,10,24,12,59,11.10
2010,10,24,13,00,11.10
2010,10,24,13,01,11.10
2010,10,24,13,02,11.10
2010,10,24,13,03,11.20
2010,10,24,13,04,11.20
2010,10,24,13,05,11.20
2010,10,24,13,06,11.20
2010,10,24,13,07,11.20
2010,10,24,13,08,11.10
2010,10,24,13,09,11.00
2010,10,24,13,10,10.90
2010,10,24,13,11,10.80
2010,10,24,13,12,10.70
2010,10,24,13,13,10.60
2010,10,24,13,14,10.60
2010,10,24,13,15,10.50
2010,10,24,13,16,10.50
2010,10,24,13,17,10.50
2010,10,24,13,18,10.60
2010,10,24,13,19,10.60
2010,10,24,13,20,10.60
2010,10,24,13,21,10.60
2010,10,24,13,22,10.60
2010,10,24,13,23,10.60
2010,10,24,13,24,10.60
2010,10,24,13,25,10.60
2010,10,24,13,26,10.60
2010,10,24,13,27,10.60
2010,10,24,13,28,10.60
2010,10,24,13,29,10.60
2010,10,24,13,30,10.60
2010,10,24,13,31,10.70
2010,10,24,13,32,10.80
2010,10,24,13,33,10.80
2010,10,24,13,34,11.00
2010,10,24,13,35,11.00
2010,10,24,13,36,11.10
2010,10,24,13,37,11.20
2010,10,24,13,38,11.30
2010,10,24,13,39,11.40
2010,10,24,13,40,11.40
2010,10,24,13,41,11.50
2010,10,24,13,42,11.60
2010,10,24,13,43,11.60
2010,10,24,13,44,11.60
2010,10,24,13,45,11.70
2010,10,24,13,46,11.70
2010,10,24,13,47,11.60
2010,10,24,13,48,11.60
2010,10,24,13,49,11.60
2010,10,24,13,50,11.60
2010,10,24,13,51,11.50
2010,10,24,13,52,11.50
2010,10,24,13,53,11.40
2010,10,24,13,54,11.40
2010,10,24,13,55,11.30
2010,10,24,13,56,11.30
2010,10,24,13,57,11.30
2010,10,24,13,58,11.30
2010,10,24,13,59,11.20
2010,10,24,14,00,11.20
2010,10,24,14,01,11.20
2010,10,24,14,02,11.20
2010,10,24,14,03,11.30
2010,10,24,14,04,11.20
2010,10,24,14,05,11.20
2010,10,24,14,06,11.20
2010,10,24,14,07,11.10
2010,10,24,14,08,11.00
2010,10,24,14,09,11.00
2010,10,24,14,10,11.00
2010,10,24,14,11,10.90
2010,10,24,14,12,10.90
2010,10,24,14,13,11.00
2010,10,24,14,14,11.00
2010,10,24,14,15,11.00
2010,10,24,14,16,11.10
2010,10,24,14,17,11.00
2010,10,24,14,18,11.00
2010,10,24,14,19,11.00
2010,10,24,14,20,11.00
2010,10,24,14,21,11.00
2010,10,24,14,22,11.10
2010,10,24,14,23,11.10
2010,10,24,14,24,11.10
2010,10,24,14,25,11.00
2010,10,24,14,26,10.90
2010,10,24,14,27,10.90
2010,10,24,14,28,10.90
2010,10,24,14,29,10.90
2010,10,24,14,30,10.80
2010,10,24,14,31,10.80
2010,10,24,14,32,10.80
2010,10,24,14,33,10.80
2010,10,24,14,34,10.90
2010,10,24,14,35,10.80
2010,10,24,14,36,10.80
2010,10,24,14,37,10.90
2010,10,24,14,38,10.90
2010,10,24,14,39,10.90
2010,10,24,14,40,11.00
2010,10,24,14,41,11.10
2010,10,24,14,42,11.10
2010,10,24,14,43,11.10
2010,10,24,14,44,11.10
2010,10,24,14,45,11.10
2010,10,24,14,46,11.10
2010,10,24,14,47,11.10
2010,10,24,14,48,11.10
2010,10,24,14,49,11.10
2010,10,24,14,50,11.10
2010,10,24,14,51,11.00
2010,10,24,14,52,11.00
2010,10,24,14,53,11.00
2010,10,24,14,54,10.90
2010,10,24,14,55,11.00
2010,10,24,14,56,10.90
2010,10,24,14,57,10.90
2010,10,24,14,58,10.90
2010,10,24,14,59,10.80
2010,10,24,15,00,10.80
2010,10,24,15,01,10.80
2010,10,24,15,02,10.70
2010,10,24,15,03,10.70
2010,10,24,15,04,10.70
2010,10,24,15,05,10.60
2010,10,24,15,06,10.60
2010,10,24,15,07,10.70
2010,10,24,15,08,10.70
2010,10,24,15,09,10.70
2010,10,24,15,10,10.80
2010,10,24,15,11,10.80
2010,10,24,15,12,10.80
2010,10,24,15,13,10.80
2010,10,24,15,14,10.80
2010,10,24,15,15,10.80
2010,10,24,15,16,10.70
2010,10,24,15,17,10.70
2010,10,24,15,18,10.70
2010,10,24,15,19,10.70
2010,10,24,15,20,10.70
2010,10,24,15,21,10.60
2010,10,24,15,22,10.70
2010,10,24,15,23,10.70
2010,10,24,15,24,10.70
2010,10,24,15,25,10.70
2010,10,24,15,26,10.70
2010,10,24,15,27,10.70
2010,10,24,15,28,10.70
2010,10,24,15,29,10.70
2010,10,24,15,30,10.70
2010,10,24,15,31,10.80
2010,10,24,15,32,10.80
2010,10,24,15,33,10.80
2010,10,24,15,34,10.80
2010,10,24,15,35,10.80
2010,10,24,15,36,10.90
2010,10,24,15,37,11.00
2010,10,24,15,38,11.00
2010,10,24,15,39,11.10
2010,10,24,15,40,11.10
2010,10,24,15,41,11.10
2010,10,24,15,42,11.10
2010,10,24,15,43,11.10
2010,10,24,15,44,11.10
2010,10,24,15,45,11.20
2010,10,24,15,46,11.20
2010,10,24,15,47,11.20
2010,10,24,15,48,11.20
2010,10,24,15,49,11.30
2010,10,24,15,50,11.30
2010,10,24,15,51,11.30
2010,10,24,15,52,11.30
2010,10,24,15,53,11.30
2010,10,24,15,54,11.30
2010,10,24,15,55,11.20
2010,10,24,15,56,11.20
2010,10,24,15,57,11.10
2010,10,24,15,58,11.10
2010,10,24,15,59,11.00
2010,10,24,16,00,11.00
2010,10,24,16,01,10.90
2010,10,24,16,02,10.90
2010,10,24,16,03,10.90
2010,10,24,16,04,10.90
2010,10,24,16,05,10.90
2010,10,24,16,06,11.00
2010,10,24,16,07,11.00
2010,10,24,16,08,11.00
2010,10,24,16,09,10.90
2010,10,24,16,10,10.90
2010,10,24,16,11,10.90
2010,10,24,16,12,10.90
2010,10,24,16,13,10.90
2010,10,24,16,14,10.90
2010,10,24,16,15,10.80
2010,10,24,16,16,10.80
2010,10,24,16,17,10.80
2010,10,24,16,18,10.80
2010,10,24,16,19,10.80
2010,10,24,16,20,10.80
2010,10,24,16,21,10.80
2010,10,24,16,22,10.80
2010,10,24,16,23,10.70
2010,10,24,16,24,10.70
2010,10,24,16,25,10.70
2010,10,24,16,26,10.70
2010,10,24,16,27,10.70
2010,10,24,16,28,10.70
2010,10,24,16,29,10.60
2010,10,24,16,30,10.60
2010,10,24,16,31,10.60
2010,10,24,16,32,10.60
2010,10,24,16,33,10.60
2010,10,24,16,34,10.60
2010,10,24,16,35,10.60
2010,10,24,16,36,10.60
2010,10,24,16,37,10.50
2010,10,24,16,38,10.40
2010,10,24,16,39,10.40
2010,10,24,16,40,10.30
2010,10,24,16,41,10.30
2010,10,24,16,42,10.30
2010,10,24,16,43,10.30
2010,10,24,16,44,10.20
2010,10,24,16,45,10.20
2010,10,24,16,46,10.20
2010,10,24,16,47,10.20
2010,10,24,16,48,10.10
2010,10,24,16,49,10.10
2010,10,24,16,50,10.10
2010,10,24,16,51,10.10
2010,10,24,16,52,10.00
2010,10,24,16,53,9.90
2010,10,24,16,54,9.80
2010,10,24,16,55,9.70
2010,10,24,16,56,9.70
2010,10,24,16,57,9.60
2010,10,24,16,58,9.60
2010,10,24,16,59,9.60
2010,10,24,17,00,9.50
2010,10,24,17,01,9.50
2010,10,24,17,02,9.40
2010,10,24,17,03,9.40
2010,10,24,17,04,9.40
2010,10,24,17,05,9.30
2010,10,24,17,06,9.30
2010,10,24,17,07,9.30
2010,10,24,17,08,9.20
2010,10,24,17,09,9.20
2010,10,24,17,10,9.20
2010,10,24,17,11,9.20
2010,10,24,17,12,9.20
2010,10,24,17,13,9.20
2010,10,24,17,14,9.10
2010,10,24,17,15,9.10
2010,10,24,17,16,9.10
2010,10,24,17,17,9.10
2010,10,24,17,18,9.10
2010,10,24,17,19,9.10
2010,10,24,17,20,9.00
2010,10,24,17,21,9.00
2010,10,24,17,22,9.00
2010,10,24,17,23,9.00
2010,10,24,17,24,9.00
2010,10,24,17,25,9.00
2010,10,24,17,26,8.90
2010,10,24,17,27,8.90
2010,10,24,17,28,8.90
2010,10,24,17,29,8.90
2010,10,24,17,30,8.90
2010,10,24,17,31,8.90
2010,10,24,17,32,8.90
2010,10,24,17,33,8.90
2010,10,24,17,34,8.90
2010,10,24,17,35,8.90
2010,10,24,17,36,8.90
2010,10,24,17,37,8.90
2010,10,24,17,38,8.90
2010,10,24,17,39,8.80
2010,10,24,17,40,8.80
2010,10,24,17,41,8.80
2010,10,24,17,42,8.80
2010,10,24,17,43,8.80
2010,10,24,17,44,8.80
2010,10,24,17,45,8.80
2010,10,24,17,46,8.80
2010,10,24,17,47,8.80
2010,10,24,17,48,8.80
2010,10,24,17,49,8.80
2010,10,24,17,50,8.80
2010,10,24,17,51,8.80
2010,10,24,17,52,8.80
2010,10,24,17,53,8.80
2010,10,24,17,54,8.80
2010,10,24,17,55,8.80